Regional Weather Roundup
Issued by NWS Mt. Holly, NJ

Home | Current Version | Previous Version | Text Only | Print | Product List | Glossary On
Versions: 1 2 3 4 5 6 7 8 9 10 11 12 13 14 15 16 17 18 19 20 21 22 23 24 25 26 27 28 29 30 31 32 33 34 35 36 37 38 39 40 41 42 43 44 45 46 47 48 49 50
000
ASUS41 KPHI 300810
RWRPHI

REGIONAL WEATHER ROUNDUP
NATIONAL WEATHER SERVICE MOUNT HOLLY NJ
400 AM EDT SAT AUG 30 2014

NOTE:  "FAIR" INDICATES FEW OR NO CLOUDS BELOW 12,000 FEET WITH NO
SIGNIFICANT WEATHER AND/OR OBSTRUCTIONS TO VISIBILITY.

 * = STATION DOES NOT REPORT PRECIPITATION (E.G. RAIN, SNOW, ETC.)
        OR FOG.

NJZ015>026-300900-
SOUTHERN NEW JERSEY

CITY           SKY/WX    TMP DP  RH WIND       PRES   REMARKS
POMONA         PTCLDY    55  53  93 CALM      30.24S
RIO GRANDE*    CLEAR     59  54  82 CALM      30.24S
MILLVILLE      CLEAR     53  52  96 CALM      30.24S
WRIGHTSTOWN    CLEAR     55  54  99 NE2       30.23S
MOUNT HOLLY    CLEAR     54  53  97 CALM      30.25S
TRENTON        CLEAR     57  54  89 CALM      30.25S

$$
NJZ001>014-300900-
NORTHERN NEW JERSEY

CITY           SKY/WX    TMP DP  RH WIND       PRES   REMARKS
SUSSEX         CLEAR     53  50  89 CALM      30.27R
ANDOVER*         N/A     53  52  96 CALM      30.27S
MORRISTOWN     FOG       52  48  87 CALM      30.26F VSB 1
NEWARK         MOCLDY    65  55  70 CALM      30.25S
TETERBORO      PTCLDY    60  54  80 NW3       30.25R
CALDWELL       CLEAR     56  52  86 CALM      30.26S
SOMERVILLE     CLEAR     54  51  90 CALM      30.24F
ALLAIRE*       CLEAR     57  48  72 CALM      30.25S
TOMS RIVER*    CLEAR     50  46  87 CALM      30.25S

$$
PAZ043-044-047-054-055-060>062-066>071-300900-
EASTERN PENNSYLVANIA

CITY           SKY/WX    TMP DP  RH WIND       PRES   REMARKS
PHILADELPHIA   PTCLDY    63  58  83 CALM      30.25S
NORTH PHILA    CLEAR     59  53  80 CALM      30.26S
BLUE BELL      CLEAR     54  52  94 CALM      30.25R
DOYLESTOWN     CLEAR     56  55  97 CALM      30.25R
QUAKERTOWN*    CLEAR     54  52  94 CALM      30.27S
POTTSTOWN      CLEAR     56  55  97 CALM      30.26S
LANCASTER      CLOUDY    60  57  89 NE5       30.24S
COATESVILLE    CLOUDY    57  57 100 CALM      30.26S
READING        MOCLDY    59  56  89 N3        30.24S
ALLENTOWN      CLEAR     57  54  89 CALM      30.26R
MOUNT POCONO   CLOUDY    59  52  77 S6        30.28S
HAZLETON       CLOUDY    59  57  94 S7        30.29R
WILKES BARRE   MOCLDY    63  57  81 SW6       30.24S

$$
DEZALL-MDZ008-012-015-019-020-300900-
DELAWARE AND EASTERN MARYLAND

CITY           SKY/WX    TMP DP  RH WIND       PRES   REMARKS
WILMINGTON     MOCLDY    63  60  90 CALM      30.24F
DOVER          CLEAR     61  61 100 SE1       30.21F
GEORGETOWN     PTCLDY    60  57  89 CALM      30.23F
EASTON         CLEAR     63  63 100 CALM      30.26R
PATUXENT       MOCLDY    67  61  81 S5        30.21S
OCEAN CITY     CLEAR     59  57  93 CALM      30.22S
WALLOPS ISLAND CLEAR     63  59  87 CALM      30.22S
CAMBRIDGE      PTCLDY    61  59  94 CALM      30.22R
SALISBURY      PTCLDY    60  55  83 CALM      30.22S

$$
PAZ001-021-NYZ056-072-MDZ011-DCZ001-300900-
OTHER NEARBY LOCATIONS

CITY           SKY/WX    TMP DP  RH WIND       PRES   REMARKS
HARRISBURG     MOCLDY    63  57  81 E5        30.22S
STATE COLLEGE  PTCLDY    60  53  78 CALM      30.20S
WILLIAMSPORT   CLEAR     59  53  80 E8        30.20S
BINGHAMTON     CLEAR     56  52  86 S6        30.22R
NEW YORK CITY  CLEAR     67  54  63 CALM      30.28S
BALTIMORE      PTCLDY    64  61  90 CALM      30.22S
WASHINGTON DC  MOCLDY    71  62  73 S6        30.21F

$$



USA.gov is the U.S. government's official web portal to all federal, state and local government web resources and services.